SCP
-0 -0 -0 -0 -0 -0 -0 -0 -0 -0 -0 -0 -0 -0 -0 -0 -0 -0 -0 -0 -0 -0 -0 0 0 0 0 0 0 0 -0 -0 -0 -0 -0 -0 0 0 0 0 0 0 0
-0 0 -0 -0 -0 -0 -0 -0 -0 -0 -0 -0 -0 -0 -0 -0 -0 -0 -0 -0 -0 -0 -0 0 0 0 0 0 0 0 -0 -0 -0 -0 -0 -0 0 0 -0 -0 0 0 0
-0 -0 0 -0 -0 -0 -0 -0 -0 -0 -0 -0 -0 -0 -0 -0 -0 -0 -0 -0 -0 -0 -0 -0 0 0 0 0 -0 -0 -0 -0 -0 -0 -0 -0 0 0 0 0 0 0 0
-0 0 -0 -0 -0 -0 -0 -0 -0 -0 -0 -0 -0 -0 -0 -0 -0 -0 -0 -0 -0 -0 -0 -0 0 0 0 0 -0 -0 -0 -0 -0 -0 -0 0 0 0 0 0 0 0 0
1 0 -0 -0 -0 -0 -0 -0 -0 -0 -0 -0 -0 -0 -0 -0 -0 -0 -0 -0 -0 -0 -0 -0 -0 0 0 -0 -0 -0 -0 -0 -0 -0 0 0 0 0 0 0 0 0 0
1 1 -0 -0 -0 -0 -0 -0 -0 -0 -0 -0 -0 -0 -0 -0 -0 -0 -0 -0 -0 -0 -0 -0 -0 0 -0 -0 -0 -0 -0 -0 -0 -0 0 0 0 0 0 0 0 0 0
1 0 0 -0 -0 -0 -0 -0 -0 -0 -0 -0 -0 -0 -0 -0 0 0 0 0 -0 -0 -0 -0 -0 -0 -0 -0 -0 -0 -0 -0 -0 -0 -0 -0 0 0 0 0 0 0 0
1 1 1 0 0 -0 -0 0 0 0 0 0 0 0 0 0 0 0 0 0 0 0 0 0 0 -0 -0 -0 -0 -0 -0 -0 -0 -0 -0 -0 0 0 0 0 0 0 0
2 2 1 1 1 0 0 -0 0 0 0 0 0 0 0 0 0 0 0 0 0 0 0 0 0 0 -0 -0 -0 -0 -0 -0 -0 -0 -0 -0 0 0 0 0 0 0 0
1 2 1 1 1 1 1 0 0 0 0 0 0 0 0 0 0 0 0 0 0 0 0 0 0 0 0 -0 -0 -0 -0 -0 -0 -0 -0 0 0 0 0 0 0 0 0
1 1 1 1 1 1 1 1 1 0 0 0 0 0 0 0 0 0 0 0 0 0 0 0 0 0 0 0 0 -0 -0 -0 0 0 -0 0 0 0 0 0 0 0 0
1 0 1 1 1 1 1 1 1 1 1 1 1 0 0 0 0 0 0 0 0 0 0 0 0 0 0 0 -0 -0 0 0 0 0 0 0 0 0 0 1 0 0 0
0 0 0 1 1 1 2 1 1 1 1 1 1 0 0 0 0 0 0 0 0 0 0 0 0 0 0 0 0 0 0 0 0 0 0 0 0 0 0 1 1 0 0
0 1 0 0 0 1 2 2 1 1 1 1 0 0 0 0 0 0 0 0 0 0 0 0 0 0 0 0 0 0 0 0 0 0 0 0 0 0 0 1 1 0 0
0 0 1 0 0 0 1 1 1 1 0 0 0 0 0 0 0 0 0 0 0 0 0 0 0 0 0 0 0 0 0 0 0 0 0 0 0 0 1 1 1 1 1
0 0 1 0 0 1 0 0 0 0 0 0 0 0 0 0 0 0 0 0 0 0 0 0 0 0 0 0 0 0 0 0 0 0 0 0 0 0 1 1 1 1 1
0 0 0 0 0 0 1 0 0 0 0 0 0 0 0 0 0 0 0 0 0 0 0 0 0 0 0 0 0 -0 0 0 0 0 0 0 0 0 0 0 1 1 1
0 0 0 1 0 0 0 0 0 0 0 0 0 0 0 0 0 0 0 0 0 0 0 0 0 1 1 1 0 0 0 0 0 0 0 0 0 0 0 0 0 1 1
0 0 0 0 0 0 0 0 0 0 0 0 0 0 1 0 0 0 0 1 1 1 1 0 0 0 0 0 1 0 0 0 0 0 0 0 0 0 0 0 0 0 0
0 0 0 0 0 0 0 0 0 0 0 0 0 0 0 0 0 -0 1 2 1 1 0 0 0 0 0 0 1 1 0 0 0 0 0 0 0 0 0 0 0 0 0
0 0 0 0 0 0 0 0 0 0 0 0 0 0 0 0 -0 -0 1 1 1 1 0 0 0 0 0 0 0 0 0 0 0 0 0 0 0 0 0 0 0 0 0
0 0 0 0 0 0 0 0 0 0 0 0 0 0 0 0 -0 0 0 0 0 1 1 0 0 0 0 0 0 0 0 0 0 0 0 0 0 0 0 0 0 0 0
0 0 0 0 0 0 0 0 0 0 0 0 0 0 0 0 0 0 0 0 0 0 1 1 1 0 0 0 0 0 0 0 0 0 0 0 0 0 0 0 0 0 0
0 0 0 0 0 0 0 0 0 0 0 0 0 0 0 0 0 0 0 0 0 0 0 0 0 0 0 0 0 0 0 0 0 0 0 0 0 0 0 0 0 0 0
0 0 0 1 1 0 0 0 0 0 0 0 0 0 0 0 0 -0 -0 0 0 1 0 0 0 0 0 0 0 0 0 0 0 0 0 0 0 0 0 0 0 0 0
0 2 5 5 3 3 2 1 0 1 0 0 0 0 -0 0 0 0 0 1 0 0 0 0 0 0 0 0 0 0 0 0 0 0 0 0 0 0 0 0 0 0 0
Wind_Speed_500mb
67 66 65 60 56 51 47 46 46 43 40 38 41 42 42 41 41 42 46 48 43 38 34 32 31 32 33 32 31 31 32 33 32 31 28 24 20 19 18 20 22 22 22
71 67 65 61 58 53 48 45 42 40 37 35 40 42 43 44 46 49 51 47 41 37 33 32 33 35 36 34 35 38 39 43 41 37 34 31 26 22 18 17 19 19 20
65 68 65 61 58 54 48 44 41 39 35 34 39 43 42 45 48 51 49 45 40 36 33 33 34 36 37 35 36 37 36 33 28 27 26 27 27 26 18 16 17 17 17
61 67 69 64 59 56 52 47 44 41 37 33 36 42 43 45 47 47 45 41 37 34 32 31 32 35 36 37 36 33 30 26 21 21 19 20 22 22 18 15 14 13 15
60 64 71 67 63 59 55 51 46 43 38 33 35 40 42 43 45 45 42 37 33 30 29 27 27 30 33 34 31 30 28 23 22 16 11 13 15 15 17 15 12 10 11
59 64 72 67 62 59 53 50 47 43 40 34 34 38 43 44 42 42 39 35 30 27 24 23 23 24 28 30 31 29 25 23 17 10 8 16 16 12 14 11 10 8 8
65 66 70 66 61 56 52 49 48 45 42 36 33 35 39 40 40 40 37 34 28 24 22 21 21 21 23 27 28 28 26 17 12 11 5 9 13 13 14 12 10 9 6
63 65 67 63 58 54 50 48 46 44 42 40 34 34 36 39 39 39 36 33 27 23 20 20 19 18 19 21 23 23 21 18 11 11 2 4 3 2 15 15 15 14 12
58 62 63 60 54 50 48 48 48 47 46 43 37 35 35 37 38 38 36 32 28 25 22 19 18 16 15 14 15 16 16 15 15 19 12 12 11 8 11 17 19 22 19
42 50 55 56 54 51 49 46 46 46 46 43 40 36 34 35 36 36 35 33 29 26 23 20 17 15 15 14 14 13 13 12 13 17 17 23 19 12 10 17 23 25 26
39 43 45 49 49 46 44 45 47 49 47 44 42 37 33 33 36 38 36 33 30 27 24 22 20 19 18 16 15 14 13 9 11 14 14 13 13 14 15 19 26 31 33
22 41 54 51 51 46 46 48 50 51 53 50 46 41 37 34 36 39 39 37 34 30 27 23 22 20 19 16 16 16 13 10 6 2 4 8 13 18 23 25 29 32 37
10 34 54 55 52 52 50 48 50 51 51 49 45 43 39 39 41 43 42 40 37 34 30 26 24 22 20 19 19 20 19 20 16 13 11 14 17 21 22 21 28 33 40
59 77 56 63 52 51 49 50 49 52 51 48 46 45 44 43 44 45 45 43 39 34 29 27 25 23 23 20 15 17 21 22 21 22 22 25 28 34 39 37 39 47 47
59 63 53 51 57 56 51 49 52 49 48 47 46 45 47 46 46 44 43 41 34 28 21 18 23 17 22 24 18 14 15 13 12 15 16 20 21 27 30 27 33 39 43
55 53 60 61 60 54 50 43 43 41 42 44 44 44 44 44 44 45 40 34 32 28 22 18 16 18 17 21 23 23 17 20 21 27 29 31 36 42 42 44 48 50 48
59 51 48 65 58 48 41 43 42 40 48 47 42 38 38 41 44 46 43 35 28 27 27 22 25 30 29 31 37 24 23 30 33 36 38 31 27 29 33 35 37 37 36
64 66 58 50 59 52 44 40 56 60 51 51 44 39 24 22 34 48 44 41 32 37 33 32 35 31 31 26 21 26 34 33 23 27 31 27 31 40 42 35 37 37 41
44 55 63 65 70 72 68 68 63 72 58 50 49 49 45 28 37 54 56 46 36 43 40 43 45 42 46 41 54 39 42 50 39 36 41 42 42 35 35 37 40 44 48
39 40 56 71 66 72 72 67 80 65 59 61 52 35 44 44 60 82 68 52 53 52 45 47 49 53 57 47 47 39 36 38 41 43 46 37 32 31 32 39 46 33 33
56 54 53 46 52 71 77 79 97 79 79 72 70 73 56 44 85 101 83 53 49 52 53 51 45 43 41 35 37 35 48 50 56 53 38 33 29 29 36 37 31 36 36
65 56 54 40 41 47 73 83 82 80 80 84 80 89 90 74 110 100 57 53 44 43 48 56 46 46 47 38 41 47 45 54 51 39 35 31 32 34 34 32 30 30 37
67 56 49 40 34 44 50 54 46 61 75 85 97 84 73 90 88 40 55 42 58 56 47 49 55 55 48 41 43 37 19 28 35 37 42 40 38 37 38 34 32 36 37
68 60 50 40 41 35 42 54 47 35 35 23 49 53 32 44 26 39 57 52 43 49 53 48 51 51 50 52 49 48 47 48 34 38 52 52 49 45 45 43 43 42 48
74 66 54 47 41 41 41 36 32 24 23 15 18 20 59 27 44 53 45 37 35 39 36 39 46 44 51 52 50 47 45 46 49 53 58 67 64 57 56 58 55 52 56
70 59 41 36 32 29 27 25 22 22 25 22 28 23 34 38 38 38 34 32 25 36 42 47 56 48 45 45 43 45 48 48 50 53 64 69 78 78 69 68 65 60 60
Wind_Direction_500mb
169 167 164 164 161 156 151 147 145 143 143 145 151 153 153 153 153 150 147 145 140 135 133 131 128 121 114 111 107 113 115 113 106 101 93 91 81 70 79 91 90 89 86
165 168 167 167 164 161 159 155 149 145 142 142 147 148 150 151 150 149 148 145 141 137 136 135 131 125 120 115 116 114 113 114 105 101 96 80 78 73 68 81 84 85 86
169 168 170 170 168 165 165 161 158 153 148 145 148 149 150 150 151 152 150 147 145 143 142 141 139 135 127 122 124 124 122 118 113 106 97 82 70 61 63 67 73 79 80
170 171 171 173 171 170 168 171 167 163 156 150 150 152 152 152 154 154 153 152 150 148 147 146 146 143 137 132 131 130 127 117 112 109 104 85 71 51 52 60 71 77 81
175 175 174 176 175 175 174 174 173 170 165 157 155 156 155 155 156 156 156 157 155 152 150 150 151 151 146 142 143 139 132 124 120 107 91 85 76 51 37 45 57 69 78
176 178 175 178 179 178 179 178 177 174 172 166 162 162 161 162 160 162 165 164 161 157 155 154 156 158 156 155 154 155 149 138 133 135 116 80 65 39 20 29 44 44 56
177 178 177 179 181 182 182 184 181 179 178 176 171 168 169 168 165 166 164 165 166 166 166 165 166 169 165 163 166 167 165 156 168 178 171 104 67 17 352 1 10 11 11
177 176 177 179 183 185 187 189 187 185 184 184 180 176 176 176 172 169 170 171 174 175 177 178 180 186 180 177 176 182 190 196 195 191 189 329 142 308 325 346 350 341 328
181 179 180 179 184 188 192 194 191 190 190 191 190 186 183 185 182 179 179 181 182 182 185 190 194 201 201 200 194 198 206 213 210 201 256 264 274 257 284 318 336 332 315
185 187 187 184 186 192 191 194 196 195 197 198 198 196 192 190 191 191 188 188 190 191 192 195 203 210 217 217 216 214 223 228 229 227 236 243 250 261 281 296 319 327 323
177 197 202 198 194 196 197 196 194 196 201 205 206 205 204 201 198 200 199 196 198 201 203 205 206 215 222 227 231 231 233 237 256 255 239 225 233 268 289 294 309 320 319
194 199 204 207 204 202 203 201 198 198 200 203 207 211 210 211 208 205 205 203 204 209 213 216 221 227 234 239 242 246 236 250 250 78 141 224 270 282 282 298 299 307 310
197 245 217 209 209 210 210 210 207 206 208 209 213 216 219 217 212 209 209 209 210 215 219 223 232 239 246 250 252 253 234 247 250 251 253 262 273 287 291 298 289 293 300
193 239 215 204 209 215 214 215 219 217 216 217 220 223 224 223 218 213 212 214 216 218 225 237 242 249 252 251 246 251 252 271 273 282 285 290 293 292 293 294 293 297 299
203 208 205 204 206 212 216 219 220 223 225 226 226 228 230 230 224 217 217 221 221 219 214 235 239 247 251 239 248 261 273 286 302 306 316 318 313 303 301 301 301 306 308
197 211 209 194 198 206 211 214 223 228 238 236 235 234 237 237 234 223 218 216 224 219 218 239 233 234 231 232 241 256 278 290 285 278 285 291 295 302 301 302 298 294 295
203 199 195 199 199 193 202 216 223 225 231 232 240 242 240 240 238 233 230 226 230 233 244 252 248 251 243 251 247 247 271 282 278 280 281 280 291 297 303 297 296 299 291
217 223 229 206 200 195 208 227 238 231 227 222 222 229 233 246 255 239 236 234 238 246 245 249 247 251 231 234 249 266 273 262 261 257 265 271 282 287 289 291 291 296 289
206 212 211 217 227 230 233 219 244 232 226 217 226 233 230 237 261 242 237 237 227 235 237 241 244 241 241 245 270 258 258 259 257 261 270 277 278 277 286 298 300 299 296
199 200 216 213 216 217 215 217 216 222 236 229 229 220 227 281 235 249 235 239 231 230 235 242 246 246 255 270 242 255 244 257 263 263 269 269 280 289 295 302 302 305 305
177 176 182 191 213 219 213 207 218 226 225 227 227 226 251 267 252 250 222 232 237 242 243 241 251 261 259 258 236 249 255 262 258 261 263 273 279 284 294 306 308 300 303
179 174 171 188 201 210 215 222 218 235 244 231 225 240 246 285 250 253 236 228 237 238 244 247 249 243 249 237 234 241 251 261 258 260 261 269 278 283 295 309 310 311 304
184 188 192 188 181 194 201 211 218 235 242 240 235 250 253 263 274 226 240 258 263 240 241 244 245 244 245 245 238 246 245 254 271 270 272 275 285 290 296 302 295 304 311
213 213 208 203 200 191 198 205 212 217 222 261 251 252 231 237 194 247 236 246 248 245 243 251 247 248 244 240 246 252 255 255 267 278 277 285 288 289 291 289 289 293 293
218 212 208 206 194 194 196 213 210 230 227 265 239 254 222 240 220 201 249 248 261 263 257 256 256 251 243 246 253 255 255 256 259 265 280 285 286 287 288 288 289 284 287
198 195 183 165 172 184 190 197 229 247 244 247 257 236 194 208 202 202 219 239 250 254 253 257 261 253 252 261 262 261 261 262 269 270 274 278 281 283 283 284 285 284 286
Wind_Speed_850mb
67 66 65 60 56 51 47 46 46 43 40 38 41 42 42 41 41 42 46 48 43 38 34 32 31 32 33 32 31 31 32 33 32 31 28 24 20 19 18 20 22 22 22
71 67 65 61 58 53 48 45 42 40 37 35 40 42 43 44 46 49 51 47 41 37 33 32 33 35 36 34 35 38 39 43 41 37 34 31 26 22 18 17 19 19 20
65 68 65 61 58 54 48 44 41 39 35 34 39 43 42 45 48 51 49 45 40 36 33 33 34 36 37 35 36 37 36 33 28 27 26 27 27 26 18 16 17 17 17
61 67 69 64 59 56 52 47 44 41 37 33 36 42 43 45 47 47 45 41 37 34 32 31 32 35 36 37 36 33 30 26 21 21 19 20 22 22 18 15 14 13 15
60 64 71 67 63 59 55 51 46 43 38 33 35 40 42 43 45 45 42 37 33 30 29 27 27 30 33 34 31 30 28 23 22 16 11 13 15 15 17 15 12 10 11
59 64 72 67 62 59 53 50 47 43 40 34 34 38 43 44 42 42 39 35 30 27 24 23 23 24 28 30 31 29 25 23 17 10 8 16 16 12 14 11 10 8 8
65 66 70 66 61 56 52 49 48 45 42 36 33 35 39 40 40 40 37 34 28 24 22 21 21 21 23 27 28 28 26 17 12 11 5 9 13 13 14 12 10 9 6
63 65 67 63 58 54 50 48 46 44 42 40 34 34 36 39 39 39 36 33 27 23 20 20 19 18 19 21 23 23 21 18 11 11 2 4 3 2 15 15 15 14 12
58 62 63 60 54 50 48 48 48 47 46 43 37 35 35 37 38 38 36 32 28 25 22 19 18 16 15 14 15 16 16 15 15 19 12 12 11 8 11 17 19 22 19
42 50 55 56 54 51 49 46 46 46 46 43 40 36 34 35 36 36 35 33 29 26 23 20 17 15 15 14 14 13 13 12 13 17 17 23 19 12 10 17 23 25 26
39 43 45 49 49 46 44 45 47 49 47 44 42 37 33 33 36 38 36 33 30 27 24 22 20 19 18 16 15 14 13 9 11 14 14 13 13 14 15 19 26 31 33
22 41 54 51 51 46 46 48 50 51 53 50 46 41 37 34 36 39 39 37 34 30 27 23 22 20 19 16 16 16 13 10 6 2 4 8 13 18 23 25 29 32 37
10 34 54 55 52 52 50 48 50 51 51 49 45 43 39 39 41 43 42 40 37 34 30 26 24 22 20 19 19 20 19 20 16 13 11 14 17 21 22 21 28 33 40
59 77 56 63 52 51 49 50 49 52 51 48 46 45 44 43 44 45 45 43 39 34 29 27 25 23 23 20 15 17 21 22 21 22 22 25 28 34 39 37 39 47 47
59 63 53 51 57 56 51 49 52 49 48 47 46 45 47 46 46 44 43 41 34 28 21 18 23 17 22 24 18 14 15 13 12 15 16 20 21 27 30 27 33 39 43
55 53 60 61 60 54 50 43 43 41 42 44 44 44 44 44 44 45 40 34 32 28 22 18 16 18 17 21 23 23 17 20 21 27 29 31 36 42 42 44 48 50 48
59 51 48 65 58 48 41 43 42 40 48 47 42 38 38 41 44 46 43 35 28 27 27 22 25 30 29 31 37 24 23 30 33 36 38 31 27 29 33 35 37 37 36
64 66 58 50 59 52 44 40 56 60 51 51 44 39 24 22 34 48 44 41 32 37 33 32 35 31 31 26 21 26 34 33 23 27 31 27 31 40 42 35 37 37 41
44 55 63 65 70 72 68 68 63 72 58 50 49 49 45 28 37 54 56 46 36 43 40 43 45 42 46 41 54 39 42 50 39 36 41 42 42 35 35 37 40 44 48
39 40 56 71 66 72 72 67 80 65 59 61 52 35 44 44 60 82 68 52 53 52 45 47 49 53 57 47 47 39 36 38 41 43 46 37 32 31 32 39 46 33 33
56 54 53 46 52 71 77 79 97 79 79 72 70 73 56 44 85 101 83 53 49 52 53 51 45 43 41 35 37 35 48 50 56 53 38 33 29 29 36 37 31 36 36
65 56 54 40 41 47 73 83 82 80 80 84 80 89 90 74 110 100 57 53 44 43 48 56 46 46 47 38 41 47 45 54 51 39 35 31 32 34 34 32 30 30 37
67 56 49 40 34 44 50 54 46 61 75 85 97 84 73 90 88 40 55 42 58 56 47 49 55 55 48 41 43 37 19 28 35 37 42 40 38 37 38 34 32 36 37
68 60 50 40 41 35 42 54 47 35 35 23 49 53 32 44 26 39 57 52 43 49 53 48 51 51 50 52 49 48 47 48 34 38 52 52 49 45 45 43 43 42 48
74 66 54 47 41 41 41 36 32 24 23 15 18 20 59 27 44 53 45 37 35 39 36 39 46 44 51 52 50 47 45 46 49 53 58 67 64 57 56 58 55 52 56
70 59 41 36 32 29 27 25 22 22 25 22 28 23 34 38 38 38 34 32 25 36 42 47 56 48 45 45 43 45 48 48 50 53 64 69 78 78 69 68 65 60 60
Wind_Direction_850mb
169 167 164 164 161 156 151 147 145 143 143 145 151 153 153 153 153 150 147 145 140 135 133 131 128 121 114 111 107 113 115 113 106 101 93 91 81 70 79 91 90 89 86
165 168 167 167 164 161 159 155 149 145 142 142 147 148 150 151 150 149 148 145 141 137 136 135 131 125 120 115 116 114 113 114 105 101 96 80 78 73 68 81 84 85 86
169 168 170 170 168 165 165 161 158 153 148 145 148 149 150 150 151 152 150 147 145 143 142 141 139 135 127 122 124 124 122 118 113 106 97 82 70 61 63 67 73 79 80
170 171 171 173 171 170 168 171 167 163 156 150 150 152 152 152 154 154 153 152 150 148 147 146 146 143 137 132 131 130 127 117 112 109 104 85 71 51 52 60 71 77 81
175 175 174 176 175 175 174 174 173 170 165 157 155 156 155 155 156 156 156 157 155 152 150 150 151 151 146 142 143 139 132 124 120 107 91 85 76 51 37 45 57 69 78
176 178 175 178 179 178 179 178 177 174 172 166 162 162 161 162 160 162 165 164 161 157 155 154 156 158 156 155 154 155 149 138 133 135 116 80 65 39 20 29 44 44 56
177 178 177 179 181 182 182 184 181 179 178 176 171 168 169 168 165 166 164 165 166 166 166 165 166 169 165 163 166 167 165 156 168 178 171 104 67 17 352 1 10 11 11
177 176 177 179 183 185 187 189 187 185 184 184 180 176 176 176 172 169 170 171 174 175 177 178 180 186 180 177 176 182 190 196 195 191 189 329 142 308 325 346 350 341 328
181 179 180 179 184 188 192 194 191 190 190 191 190 186 183 185 182 179 179 181 182 182 185 190 194 201 201 200 194 198 206 213 210 201 256 264 274 257 284 318 336 332 315
185 187 187 184 186 192 191 194 196 195 197 198 198 196 192 190 191 191 188 188 190 191 192 195 203 210 217 217 216 214 223 228 229 227 236 243 250 261 281 296 319 327 323
177 197 202 198 194 196 197 196 194 196 201 205 206 205 204 201 198 200 199 196 198 201 203 205 206 215 222 227 231 231 233 237 256 255 239 225 233 268 289 294 309 320 319
194 199 204 207 204 202 203 201 198 198 200 203 207 211 210 211 208 205 205 203 204 209 213 216 221 227 234 239 242 246 236 250 250 78 141 224 270 282 282 298 299 307 310
197 245 217 209 209 210 210 210 207 206 208 209 213 216 219 217 212 209 209 209 210 215 219 223 232 239 246 250 252 253 234 247 250 251 253 262 273 287 291 298 289 293 300
193 239 215 204 209 215 214 215 219 217 216 217 220 223 224 223 218 213 212 214 216 218 225 237 242 249 252 251 246 251 252 271 273 282 285 290 293 292 293 294 293 297 299
203 208 205 204 206 212 216 219 220 223 225 226 226 228 230 230 224 217 217 221 221 219 214 235 239 247 251 239 248 261 273 286 302 306 316 318 313 303 301 301 301 306 308
197 211 209 194 198 206 211 214 223 228 238 236 235 234 237 237 234 223 218 216 224 219 218 239 233 234 231 232 241 256 278 290 285 278 285 291 295 302 301 302 298 294 295
203 199 195 199 199 193 202 216 223 225 231 232 240 242 240 240 238 233 230 226 230 233 244 252 248 251 243 251 247 247 271 282 278 280 281 280 291 297 303 297 296 299 291
217 223 229 206 200 195 208 227 238 231 227 222 222 229 233 246 255 239 236 234 238 246 245 249 247 251 231 234 249 266 273 262 261 257 265 271 282 287 289 291 291 296 289
206 212 211 217 227 230 233 219 244 232 226 217 226 233 230 237 261 242 237 237 227 235 237 241 244 241 241 245 270 258 258 259 257 261 270 277 278 277 286 298 300 299 296
199 200 216 213 216 217 215 217 216 222 236 229 229 220 227 281 235 249 235 239 231 230 235 242 246 246 255 270 242 255 244 257 263 263 269 269 280 289 295 302 302 305 305
177 176 182 191 213 219 213 207 218 226 225 227 227 226 251 267 252 250 222 232 237 242 243 241 251 261 259 258 236 249 255 262 258 261 263 273 279 284 294 306 308 300 303
179 174 171 188 201 210 215 222 218 235 244 231 225 240 246 285 250 253 236 228 237 238 244 247 249 243 249 237 234 241 251 261 258 260 261 269 278 283 295 309 310 311 304
184 188 192 188 181 194 201 211 218 235 242 240 235 250 253 263 274 226 240 258 263 240 241 244 245 244 245 245 238 246 245 254 271 270 272 275 285 290 296 302 295 304 311
213 213 208 203 200 191 198 205 212 217 222 261 251 252 231 237 194 247 236 246 248 245 243 251 247 248 244 240 246 252 255 255 267 278 277 285 288 289 291 289 289 293 293
218 212 208 206 194 194 196 213 210 230 227 265 239 254 222 240 220 201 249 248 261 263 257 256 256 251 243 246 253 255 255 256 259 265 280 285 286 287 288 288 289 284 287
198 195 183 165 172 184 190 197 229 247 244 247 257 236 194 208 202 202 219 239 250 254 253 257 261 253 252 261 262 261 261 262 269 270 274 278 281 283 283 284 285 284 286